Weather History for KO22 - August, 2013

Change the Weather History Date:

Friday, August 9, 2013

  Actual Average (KMOD) Record (KMOD)
Temperature  
Mean Temperature 67 °F -  
Max Temperature 84 °F 94 °F 106 °F (1978)
Min Temperature 50 °F 63 °F 51 °F (1949)
Degree Days  
Heating Degree Days 0 0  
Month to date heating degree days 0  
Since 1 June heating degree days 3  
Since 1 July heating degree days 0  
Cooling Degree Days 2 14  
Month to date cooling degree days 126  
Year to date cooling degree days 1061  
Since 1 June cooling degree days 862  
Growing Degree Days 17 (Base 50)    
Moisture  
Dew Point 42 °F    
Average Humidity 45    
Maximum Humidity 76    
Minimum Humidity 16    
Precipitation  
Precipitation 0.00 in 0.00 in 0.00 in (2015)
Month to date precipitation 0.00  
Year to date precipitation 8.75  
Snow  
Snow 0.00 in - - ()
Month to date snowfall  
Since 1 June snowfall  
Since 1 July snowfall  
Snow Depth -    
Sea Level Pressure  
Sea Level Pressure 29.95 in    
Wind  
Wind Speed 3 mph (SW)    
Max Wind Speed 12 mph    
Max Gust Speed 20 mph    
Visibility 10 miles    
Events      
T = Trace of Precipitation, MM = Missing Value Source: NWS Daily Summary

Daily Weather History Graph

Daily Weather History Graph

Search for Another Location

Airport or City:

Trip Planner

Search our weather history database for the weather conditions in past years. The results will help you decide how hot, cold, wet, or windy it might be!

Date:

Astronomy

Aug. 09, 2013 Rise Set
Actual Time 6:11 AM PDT 8:01 PM PDT
Civil Twilight 5:43 AM PDT 8:30 PM PDT
Nautical Twilight 5:08 AM PDT 9:04 PM PDT
Astronomical Twilight 4:31 AM PDT 9:41 PM PDT
Moon 8:59 AM PDT (8/9) 9:18 PM PDT (8/9)
Length of Visible Light 14h 46m
Length of Day
13h 49m
Waxing Crescent, 8% of the Moon is Illuminated
Aug 9
Waxing Crescent
Aug 14
First Quarter
Aug 20
Full
Aug 28
Last Quarter
Sep 5
New

Hourly Weather History & Observations

Time (PDT) Temp. Dew Point Humidity Pressure Visibility Wind Dir Wind Speed Gust Speed Precip Events Conditions
12:15 AM 57.2 °F 44.6 °F 63% 29.95 in 10.0 mi ENE 3.5 mph - N/A   Clear
12:35 AM 55.4 °F 44.6 °F 67% 29.95 in 10.0 mi Calm Calm - N/A   Clear
12:55 AM 55.4 °F 44.6 °F 67% 29.94 in 10.0 mi ENE 3.5 mph - N/A   Clear
1:15 AM 55.4 °F 44.6 °F 67% 29.94 in 10.0 mi Calm Calm - N/A   Clear
1:35 AM 53.6 °F 42.8 °F 67% 29.94 in 10.0 mi Calm Calm - N/A   Clear
1:55 AM 55.4 °F 42.8 °F 63% 29.94 in 10.0 mi NE 3.5 mph - N/A   Clear
2:15 AM 53.6 °F 42.8 °F 67% 29.94 in 10.0 mi Calm Calm - N/A   Clear
2:35 AM 53.6 °F 42.8 °F 67% 29.93 in 10.0 mi Calm Calm - N/A   Clear
2:55 AM 53.6 °F 42.8 °F 67% 29.94 in 10.0 mi Calm Calm - N/A   Clear
3:15 AM 53.6 °F 42.8 °F 67% 29.93 in 10.0 mi Calm Calm - N/A   Clear
3:35 AM 51.8 °F 42.8 °F 71% 29.93 in 10.0 mi Calm Calm - N/A   Clear
3:55 AM 51.8 °F 42.8 °F 71% 29.92 in 10.0 mi Calm Calm - N/A   Clear
4:15 AM 51.8 °F 42.8 °F 71% 29.92 in 10.0 mi Calm Calm - N/A   Clear
4:35 AM 51.8 °F 42.8 °F 71% 29.91 in 10.0 mi Calm Calm - N/A   Clear
4:55 AM 50.0 °F 42.8 °F 76% 29.92 in 10.0 mi Calm Calm - N/A   Clear
5:15 AM 50.0 °F 41.0 °F 71% 29.92 in 10.0 mi Calm Calm - N/A   Clear
5:35 AM 50.0 °F 41.0 °F 71% 29.92 in 10.0 mi Calm Calm - N/A   Clear
5:55 AM 50.0 °F 41.0 °F 71% 29.92 in 10.0 mi Calm Calm - N/A   Clear
6:15 AM 50.0 °F 42.8 °F 76% 29.93 in 10.0 mi Calm Calm - N/A   Clear
6:35 AM 50.0 °F 41.0 °F 71% 29.93 in 10.0 mi Calm Calm - N/A   Clear
6:55 AM 53.6 °F 44.6 °F 72% 29.94 in 10.0 mi Calm Calm - N/A   Clear
7:15 AM 57.2 °F 44.6 °F 63% 29.94 in 10.0 mi Calm Calm - N/A   Clear
7:35 AM 60.8 °F 44.6 °F 55% 29.94 in 10.0 mi Calm Calm - N/A   Clear
7:55 AM 64.4 °F 44.6 °F 49% 29.95 in 10.0 mi Calm Calm - N/A   Clear
8:15 AM 66.2 °F 42.8 °F 43% 29.95 in 10.0 mi Calm Calm - N/A   Clear
8:35 AM 69.8 °F 41.0 °F 35% 29.95 in 10.0 mi Calm Calm - N/A   Clear
8:55 AM 71.6 °F 41.0 °F 33% 29.95 in 10.0 mi SE 3.5 mph - N/A   Clear
9:15 AM 73.4 °F 41.0 °F 31% 29.95 in 10.0 mi SE 4.6 mph - N/A   Clear
9:35 AM 75.2 °F 41.0 °F 29% 29.95 in 10.0 mi SSW 4.6 mph - N/A   Clear
9:55 AM 75.2 °F 41.0 °F 29% 29.95 in 10.0 mi South 5.8 mph - N/A   Clear
10:15 AM 75.2 °F 41.0 °F 29% 29.96 in 10.0 mi SSW 4.6 mph - N/A   Clear
10:35 AM 77.0 °F 41.0 °F 28% 29.96 in 10.0 mi SSW 5.8 mph - N/A   Clear
10:55 AM 78.8 °F 42.8 °F 28% 29.96 in 10.0 mi SSW 4.6 mph - N/A   Clear
11:15 AM 77.0 °F 44.6 °F 32% 29.96 in 10.0 mi SSW 5.8 mph - N/A   Clear
11:35 AM 80.6 °F 44.6 °F 28% 29.96 in 10.0 mi South 6.9 mph - N/A   Clear
11:55 AM 78.8 °F 44.6 °F 30% 29.96 in 10.0 mi SSE 4.6 mph - N/A   Clear
12:15 PM 80.6 °F 44.6 °F 28% 29.96 in 10.0 mi SSW 8.1 mph - N/A   Clear
12:35 PM 80.6 °F 44.6 °F 28% 29.96 in 10.0 mi South 8.1 mph 17.3 mph N/A   Clear
12:55 PM 80.6 °F 44.6 °F 28% 29.96 in 10.0 mi South 8.1 mph 16.1 mph N/A   Clear
1:15 PM 80.6 °F 44.6 °F 28% 29.96 in 10.0 mi SW 11.5 mph 19.6 mph N/A   Clear
1:35 PM 80.6 °F 42.8 °F 26% 29.96 in 10.0 mi SSW 10.4 mph 16.1 mph N/A   Clear
1:55 PM 82.4 °F 41.0 °F 23% 29.96 in 10.0 mi SSE 6.9 mph - N/A   Clear
2:15 PM 82.4 °F 39.2 °F 21% 29.96 in 10.0 mi SSW 6.9 mph - N/A   Clear
2:35 PM 84.2 °F 37.4 °F 19% 29.96 in 10.0 mi SSW 9.2 mph - N/A   Clear
2:55 PM 84.2 °F 37.4 °F 19% 29.96 in 10.0 mi WSW 10.4 mph 18.4 mph N/A   Clear
3:15 PM 82.4 °F 37.4 °F 20% 29.96 in 10.0 mi South 6.9 mph - N/A   Clear
3:35 PM 82.4 °F 35.6 °F 19% 29.95 in 10.0 mi SW 8.1 mph - N/A   Clear
3:55 PM 82.4 °F 35.6 °F 19% 29.96 in 10.0 mi SW 9.2 mph - N/A   Clear
4:15 PM 82.4 °F 33.8 °F 17% 29.96 in 10.0 mi SSW 5.8 mph - N/A   Clear
4:35 PM 82.4 °F 32.0 °F 16% 29.95 in 10.0 mi SW 6.9 mph - N/A   Clear
4:55 PM 82.4 °F 35.6 °F 19% 29.95 in 10.0 mi WSW 5.8 mph - N/A   Clear
5:15 PM 82.4 °F 37.4 °F 20% 29.95 in 10.0 mi WSW 4.6 mph - N/A   Clear
5:35 PM 80.6 °F 37.4 °F 21% 29.95 in 10.0 mi SW 6.9 mph - N/A   Clear
5:55 PM 80.6 °F 35.6 °F 20% 29.95 in 10.0 mi West 4.6 mph - N/A   Clear
6:15 PM 80.6 °F 33.8 °F 18% 29.95 in 10.0 mi WSW 4.6 mph - N/A   Clear
6:35 PM 78.8 °F 37.4 °F 23% 29.95 in 10.0 mi SW 4.6 mph - N/A   Clear
6:55 PM 77.0 °F 41.0 °F 28% 29.96 in 10.0 mi WSW 3.5 mph - N/A   Clear
7:15 PM 75.2 °F 42.8 °F 31% 29.96 in 10.0 mi WSW 4.6 mph - N/A   Clear
7:35 PM 73.4 °F 44.6 °F 36% 29.97 in 10.0 mi West 4.6 mph - N/A   Clear
7:55 PM 71.6 °F 46.4 °F 41% 29.97 in 10.0 mi NW 4.6 mph - N/A   Clear
8:15 PM 71.6 °F 48.2 °F 43% 29.97 in 10.0 mi NW 5.8 mph - N/A   Partly Cloudy
8:35 PM 69.8 °F 48.2 °F 46% 29.98 in 10.0 mi WNW 4.6 mph - N/A   Mostly Cloudy
8:55 PM 66.2 °F 46.4 °F 49% 29.98 in 10.0 mi Calm Calm - N/A   Mostly Cloudy
9:15 PM 66.2 °F 46.4 °F 49% 29.99 in 10.0 mi NE 3.5 mph - N/A   Mostly Cloudy
9:35 PM 62.6 °F 46.4 °F 55% 29.99 in 10.0 mi Calm Calm - N/A   Mostly Cloudy
9:55 PM 62.6 °F 46.4 °F 55% 29.99 in 10.0 mi Calm Calm - N/A   Overcast
10:15 PM 60.8 °F 46.4 °F 59% 29.99 in 10.0 mi Calm Calm - N/A   Overcast
10:35 PM 59.0 °F 46.4 °F 63% 29.99 in 10.0 mi NE 3.5 mph - N/A   Overcast
10:55 PM 59.0 °F 46.4 °F 63% 29.99 in 10.0 mi Calm Calm - N/A   Overcast
11:15 PM 57.2 °F 46.4 °F 67% 30.00 in 10.0 mi Calm Calm - N/A   Overcast
11:35 PM 59.0 °F 46.4 °F 63% 30.00 in 10.0 mi NE 4.6 mph - N/A   Overcast
11:55 PM 57.2 °F 46.4 °F 67% 30.00 in 10.0 mi Calm Calm - N/A   Mostly Cloudy